Wind_Speed
11 12 11 11 11 10 9 7 6 5 4 4 5 6 6 6 6 6 6 6 7 8 10 11 11 10 6 4 3 4 5 5 6 7 7 7 7 7 8 7 6 6 6
12 13 14 14 14 12 11 9 8 6 5 3 3 3 4 4 4 4 4 3 4 6 9 10 11 11 9 5 2 3 4 5 5 6 6 5 5 4 5 5 5 5 5
11 12 14 16 15 14 12 11 9 9 7 4 3 2 1 1 1 2 2 2 3 5 7 8 9 10 10 8 4 2 3 4 5 5 5 4 4 4 4 4 4 3 4
12 14 15 16 16 14 13 12 11 10 8 6 4 3 3 3 4 4 4 4 5 5 6 7 6 7 9 9 7 2 2 3 4 4 5 5 4 4 3 4 4 3 3
14 15 16 17 16 15 14 13 12 11 9 8 8 7 7 8 8 8 8 8 8 8 8 7 7 5 5 6 6 5 2 2 3 4 4 4 4 4 4 4 4 4 3
14 15 16 16 16 15 14 13 13 12 12 12 12 13 13 13 12 12 12 12 12 12 11 10 10 8 7 6 4 4 3 2 2 4 5 4 4 4 4 3 4 5 4
14 14 15 14 13 13 13 14 15 15 15 16 17 18 18 18 17 17 16 16 16 16 16 15 14 13 12 10 9 7 6 6 5 4 5 6 6 6 5 4 3 5 6
13 14 15 14 15 15 15 16 16 17 18 19 20 20 21 20 20 20 19 19 19 19 19 19 18 17 16 15 14 13 11 10 10 9 7 6 7 8 8 8 7 5 5
14 16 17 18 19 19 19 19 20 20 21 21 21 22 21 21 21 21 21 22 22 22 22 22 22 22 21 20 19 18 17 15 15 14 12 11 10 9 10 11 11 10 8
17 18 19 20 21 21 22 23 23 23 23 23 23 23 22 22 21 21 21 22 23 24 24 25 25 25 24 24 23 22 22 20 19 18 17 16 14 13 13 12 13 13 12
20 22 23 24 25 25 26 26 27 27 26 25 24 24 23 22 21 21 21 22 22 23 24 26 27 27 27 27 26 25 25 24 22 22 21 20 19 18 17 16 16 16 15
24 26 27 29 31 32 33 34 33 32 30 28 27 27 25 24 23 22 22 23 23 24 24 26 27 28 28 27 27 26 26 26 25 24 23 22 22 22 22 21 20 19 18
28 30 32 34 35 38 40 40 39 37 36 34 31 30 28 26 25 24 24 24 24 25 25 26 26 26 26 26 26 27 28 27 26 24 23 22 22 22 23 24 25 24 22
31 33 35 37 39 41 43 44 43 43 41 40 37 34 31 28 26 25 24 25 25 25 25 26 26 26 25 26 26 26 26 26 24 23 21 21 20 19 20 23 27 28 28
32 34 35 37 40 42 45 45 45 44 44 43 41 37 34 31 28 27 25 25 25 25 26 26 25 25 26 26 25 24 24 24 22 19 18 18 17 17 18 20 24 28 30
34 35 36 37 37 41 44 45 45 47 47 44 44 40 37 34 31 28 26 25 26 25 25 25 25 25 25 25 24 24 23 22 21 21 20 19 18 19 19 20 22 24 28
35 37 41 41 42 43 44 46 48 46 45 44 45 43 40 36 31 27 25 25 25 24 24 24 25 26 26 26 25 25 24 24 23 22 21 21 20 20 20 21 22 23 25
39 41 43 44 46 45 45 47 47 43 41 41 42 43 39 35 30 27 24 23 23 24 24 24 25 26 26 26 26 25 24 23 22 22 21 21 20 20 21 21 23 24 24
43 45 46 45 44 43 43 43 39 33 32 33 36 38 35 32 29 25 22 22 23 24 24 24 25 25 26 26 26 25 24 23 22 21 20 19 19 19 20 20 21 23 24
45 45 44 42 41 40 40 40 34 26 23 25 31 34 30 27 25 23 22 23 24 24 24 24 24 25 25 25 25 25 24 22 21 19 18 17 17 17 17 18 19 21 23
45 44 41 39 38 38 37 36 30 23 18 17 21 26 26 24 23 22 22 24 24 25 24 24 24 24 24 24 24 24 23 22 21 19 18 16 15 15 15 16 17 19 21
44 41 38 37 37 38 37 35 31 27 23 18 17 17 19 21 21 21 23 24 25 26 25 25 25 24 24 24 24 23 23 22 21 19 18 16 15 14 14 14 15 17 19
39 39 39 39 39 39 38 37 34 31 28 24 20 19 20 21 21 22 23 25 26 27 27 27 26 25 25 24 24 24 23 23 22 20 19 18 16 15 14 13 14 15 17
37 39 41 41 41 40 39 38 35 32 30 27 25 23 23 23 24 25 26 26 27 28 29 29 28 28 27 26 26 25 25 25 24 23 21 20 18 17 16 14 14 15 16
37 39 41 43 43 43 42 40 39 37 34 32 30 29 29 28 28 29 30 30 30 31 31 32 31 31 30 29 29 28 27 26 26 26 24 21 19 18 17 16 15 15 16
39 41 43 44 44 45 44 43 42 41 39 38 36 35 35 35 35 34 34 34 35 35 35 35 35 34 33 32 32 31 30 29 28 28 27 24 22 20 19 18 17 17 17
Wind_Direction
290 288 290 292 291 293 299 306 318 335 4 45 71 80 78 71 62 54 48 41 31 21 19 19 20 23 33 59 85 86 81 77 71 71 73 77 80 78 76 86 119 139 136
296 297 298 296 292 292 295 298 303 314 329 358 43 73 83 77 61 48 39 26 11 7 7 12 20 27 35 46 87 118 107 97 88 79 75 81 93 100 99 97 110 142 151
304 308 308 302 297 296 295 296 300 308 314 324 346 24 60 51 8 351 343 328 327 339 349 0 18 30 35 42 53 141 151 131 111 98 93 97 109 121 129 129 128 140 162
308 312 309 303 301 299 297 295 297 302 304 305 306 305 300 294 291 292 293 289 287 298 318 335 358 20 31 40 45 55 177 180 155 129 117 116 121 130 142 143 143 154 178
308 310 306 300 299 300 300 298 297 298 297 294 291 289 288 285 282 280 279 275 271 272 284 302 314 333 359 22 34 37 31 223 209 190 168 148 137 135 149 169 164 153 158
312 310 305 302 303 305 306 304 302 300 298 295 291 289 288 286 282 279 276 273 268 264 266 275 287 293 303 320 340 354 351 329 254 231 227 219 203 181 162 163 183 179 165
317 312 308 307 310 311 311 308 305 301 297 294 291 289 287 284 282 278 275 273 271 267 264 265 270 276 280 287 293 297 300 300 291 268 248 245 243 237 223 206 185 183 189
313 310 309 307 309 310 310 308 304 301 298 295 291 289 286 283 280 276 273 272 271 269 267 265 265 267 271 275 280 284 285 285 285 282 271 261 255 250 243 235 225 208 189
303 304 305 305 304 303 301 299 298 296 295 293 291 289 286 283 280 277 273 270 268 267 266 265 264 264 266 270 274 277 278 277 276 276 273 267 262 256 247 239 234 228 215
294 296 298 298 297 295 294 293 292 291 289 289 289 288 284 282 279 276 273 269 266 265 264 263 263 263 265 267 270 272 274 273 270 270 270 266 261 257 250 242 235 231 225
289 290 290 289 289 289 289 288 287 286 284 283 283 283 280 277 276 273 271 268 265 264 262 261 261 262 263 264 266 269 271 271 270 269 269 266 260 255 250 245 238 231 227
288 288 289 288 287 287 286 285 283 280 278 276 276 276 275 274 273 272 271 267 264 262 260 259 259 260 262 263 265 267 269 270 272 272 270 268 263 256 249 244 240 235 230
292 292 291 289 288 286 285 284 283 279 275 273 271 270 270 269 269 269 269 267 263 261 259 258 259 261 263 264 266 268 269 271 272 273 272 270 267 263 254 245 239 237 234
293 292 291 289 289 288 287 287 284 280 276 269 266 266 265 264 265 266 267 265 261 259 259 258 258 259 260 263 265 268 270 271 272 274 274 272 269 266 260 249 241 238 237
285 286 288 290 291 294 290 286 280 277 274 268 263 261 260 259 260 262 262 261 258 257 258 258 258 258 258 260 264 269 272 271 270 271 271 270 267 267 264 258 250 244 241
278 280 289 294 299 303 300 294 287 279 272 265 260 256 255 252 255 258 258 257 255 255 255 257 257 257 257 258 260 263 264 265 266 268 269 267 265 262 262 261 259 255 251
286 291 300 306 312 312 309 305 298 284 272 260 254 252 249 249 251 254 253 253 251 249 250 252 254 254 255 255 257 258 260 261 265 267 269 269 268 268 266 263 261 258 257
298 305 310 311 313 315 314 311 305 288 266 254 249 247 243 244 249 250 250 248 246 245 247 249 250 250 251 253 254 254 256 259 261 264 267 270 271 270 267 264 262 259 257
304 308 311 312 313 314 317 316 310 290 265 249 241 238 237 241 244 244 244 245 244 243 244 246 248 248 249 251 252 253 254 256 258 261 265 268 270 270 268 265 262 259 257
304 306 307 309 311 314 320 323 318 294 265 244 236 236 236 236 238 240 242 244 243 242 242 243 245 246 247 249 249 250 250 250 250 252 257 260 265 267 267 266 263 260 258
300 302 304 305 309 314 319 325 326 312 292 268 251 246 240 239 237 240 244 245 242 240 240 240 242 243 244 244 244 243 243 243 242 244 247 252 259 263 266 266 265 262 260
296 298 301 304 308 313 317 322 323 323 319 303 285 268 256 250 246 245 246 245 242 240 239 238 239 241 241 240 239 240 239 238 239 241 244 249 255 260 265 268 267 266 264
293 295 298 302 305 308 311 314 315 315 313 309 300 283 272 262 255 252 251 248 245 242 240 238 238 238 238 238 238 238 238 239 240 241 245 248 251 257 263 269 272 271 269
295 296 298 299 301 302 304 304 304 303 300 296 290 284 277 270 262 257 254 250 247 245 242 240 238 237 236 236 238 239 241 241 242 242 243 246 249 255 260 265 271 274 273
298 298 298 299 299 299 299 298 296 293 290 285 280 274 271 268 263 259 255 251 248 246 244 242 240 237 236 235 236 238 241 243 244 245 245 247 251 255 257 260 265 272 275
299 298 298 298 297 297 295 293 291 288 284 279 274 269 264 261 259 257 255 251 248 245 243 241 240 239 238 236 235 237 239 241 244 247 249 250 250 251 254 257 262 269 275
Height
5910 5910 5909 5909 5908 5907 5906 5904 5903 5902 5902 5901 5901 5900 5900 5900 5900 5900 5900 5900 5899 5898 5897 5896 5895 5894 5893 5892 5892 5892 5891 5891 5890 5890 5889 5889 5889 5889 5889 5889 5890 5890 5890
5910 5909 5908 5908 5907 5906 5905 5903 5902 5901 5901 5901 5900 5900 5900 5900 5900 5900 5900 5899 5899 5898 5897 5896 5894 5893 5892 5892 5891 5891 5891 5891 5891 5890 5890 5890 5890 5890 5890 5891 5891 5892 5892
5908 5907 5907 5906 5906 5905 5904 5903 5902 5901 5900 5900 5900 5900 5899 5899 5899 5899 5899 5898 5898 5898 5897 5896 5895 5893 5892 5892 5891 5891 5891 5891 5891 5891 5890 5891 5891 5891 5891 5891 5892 5892 5893
5906 5906 5906 5905 5904 5903 5903 5902 5901 5900 5900 5899 5899 5899 5899 5898 5898 5897 5897 5897 5897 5897 5896 5896 5895 5894 5893 5892 5891 5891 5891 5891 5891 5891 5891 5891 5891 5891 5891 5891 5892 5892 5893
5905 5905 5904 5904 5903 5902 5901 5900 5900 5900 5899 5899 5898 5898 5898 5897 5897 5896 5896 5895 5895 5895 5895 5895 5895 5894 5893 5892 5891 5891 5891 5891 5891 5891 5891 5891 5891 5891 5891 5891 5891 5892 5892
5904 5904 5903 5902 5901 5901 5900 5899 5899 5899 5898 5898 5897 5897 5896 5895 5895 5894 5894 5893 5893 5892 5892 5893 5893 5893 5892 5891 5891 5890 5890 5890 5890 5890 5890 5890 5890 5890 5890 5891 5891 5891 5892
5904 5903 5902 5901 5900 5899 5898 5898 5897 5897 5896 5895 5895 5894 5893 5892 5892 5891 5891 5890 5890 5889 5889 5889 5890 5890 5890 5890 5890 5889 5889 5888 5889 5889 5889 5889 5889 5889 5890 5890 5890 5891 5891
5903 5902 5900 5899 5898 5897 5896 5895 5894 5894 5893 5892 5891 5890 5889 5888 5887 5887 5886 5886 5886 5886 5886 5886 5886 5886 5887 5887 5887 5887 5887 5887 5886 5887 5887 5887 5888 5888 5888 5889 5889 5890 5890
5901 5899 5898 5896 5895 5894 5893 5892 5891 5890 5889 5888 5887 5886 5885 5884 5883 5882 5882 5882 5881 5881 5881 5881 5881 5881 5882 5882 5883 5884 5884 5884 5883 5883 5884 5885 5885 5886 5886 5887 5887 5888 5889
5897 5895 5894 5892 5891 5890 5888 5887 5886 5885 5884 5883 5882 5881 5880 5879 5878 5877 5877 5877 5876 5876 5876 5876 5876 5876 5877 5877 5878 5878 5879 5879 5880 5880 5880 5881 5882 5883 5883 5884 5885 5886 5887
5893 5891 5889 5887 5886 5884 5883 5882 5880 5879 5878 5877 5876 5875 5874 5873 5872 5872 5871 5871 5871 5871 5871 5870 5870 5870 5871 5871 5872 5873 5873 5874 5875 5876 5876 5877 5878 5879 5880 5881 5882 5883 5884
5888 5886 5884 5882 5880 5878 5877 5875 5873 5872 5870 5869 5869 5868 5867 5867 5866 5866 5866 5865 5865 5865 5865 5864 5864 5864 5865 5865 5866 5866 5867 5868 5870 5871 5872 5872 5873 5874 5875 5877 5878 5879 5881
5884 5882 5879 5877 5874 5872 5869 5867 5866 5864 5862 5861 5860 5859 5859 5859 5859 5859 5859 5859 5858 5858 5858 5858 5857 5858 5859 5860 5860 5861 5861 5862 5864 5865 5866 5867 5867 5868 5870 5872 5873 5875 5877
5877 5875 5872 5870 5867 5863 5861 5858 5856 5854 5853 5852 5851 5850 5851 5851 5852 5852 5853 5852 5852 5851 5852 5851 5851 5852 5853 5854 5854 5855 5856 5857 5858 5859 5860 5861 5861 5862 5863 5865 5868 5870 5871
5871 5868 5864 5861 5858 5855 5851 5848 5845 5842 5841 5840 5840 5841 5841 5842 5843 5844 5845 5845 5845 5845 5845 5845 5846 5847 5848 5848 5849 5850 5851 5851 5852 5854 5854 5855 5856 5856 5857 5859 5861 5863 5865
5863 5859 5855 5851 5848 5846 5842 5838 5834 5831 5828 5828 5829 5830 5831 5833 5834 5836 5837 5838 5839 5838 5839 5839 5840 5841 5842 5843 5844 5845 5846 5847 5847 5848 5849 5849 5850 5851 5852 5854 5855 5857 5859
5855 5852 5847 5843 5839 5837 5833 5828 5823 5818 5815 5815 5817 5819 5821 5824 5826 5828 5829 5830 5831 5832 5832 5833 5833 5835 5836 5837 5838 5839 5840 5841 5842 5843 5844 5844 5845 5846 5847 5848 5849 5851 5852
5847 5844 5841 5837 5833 5829 5823 5816 5809 5803 5801 5803 5806 5809 5812 5815 5817 5820 5821 5823 5824 5825 5825 5826 5827 5828 5830 5831 5832 5833 5835 5836 5837 5838 5838 5839 5840 5840 5841 5842 5843 5845 5846
5842 5839 5836 5831 5827 5822 5815 5806 5797 5792 5791 5793 5797 5801 5804 5807 5809 5812 5814 5815 5817 5818 5819 5820 5821 5822 5823 5825 5826 5828 5829 5830 5832 5833 5834 5834 5835 5835 5835 5836 5837 5838 5839
5837 5834 5830 5826 5821 5815 5808 5799 5793 5789 5787 5786 5791 5795 5797 5800 5802 5804 5806 5808 5810 5811 5812 5813 5814 5816 5817 5819 5820 5822 5823 5825 5826 5827 5829 5829 5830 5830 5830 5830 5831 5832 5833
5831 5828 5825 5821 5816 5811 5805 5799 5794 5790 5787 5786 5788 5790 5792 5794 5795 5797 5799 5801 5803 5804 5806 5807 5809 5810 5811 5813 5814 5816 5818 5820 5821 5822 5823 5824 5825 5825 5825 5825 5826 5827 5828
5824 5821 5818 5814 5810 5806 5801 5797 5794 5791 5789 5788 5787 5788 5789 5789 5790 5791 5793 5794 5796 5798 5799 5801 5803 5804 5806 5807 5809 5811 5813 5815 5816 5818 5819 5820 5820 5821 5821 5821 5821 5822 5823
5816 5813 5811 5808 5804 5800 5796 5793 5791 5789 5788 5787 5786 5785 5785 5785 5785 5786 5787 5788 5789 5790 5792 5794 5796 5798 5799 5801 5803 5805 5807 5809 5811 5813 5815 5816 5816 5816 5816 5816 5817 5817 5818
5808 5805 5802 5800 5797 5794 5791 5788 5786 5785 5784 5783 5782 5781 5781 5780 5780 5780 5781 5781 5782 5783 5785 5786 5788 5790 5792 5794 5797 5799 5801 5803 5806 5808 5810 5812 5812 5812 5812 5812 5812 5813 5813
5800 5797 5794 5790 5787 5784 5782 5780 5778 5777 5776 5775 5774 5774 5773 5773 5773 5773 5774 5774 5775 5776 5777 5779 5780 5782 5785 5787 5790 5792 5795 5797 5799 5802 5805 5807 5807 5808 5808 5808 5808 5808 5808
5792 5788 5785 5781 5777 5773 5770 5768 5766 5765 5764 5764 5764 5763 5763 5763 5763 5764 5764 5765 5766 5767 5768 5770 5772 5774 5776 5779 5782 5785 5787 5790 5792 5795 5797 5800 5801 5803 5803 5803 5803 5803 5803